When you browse on this site, cookies collect data to enhance your experience and personalize the content and advertising you see.
Visit our Privacy Policy to learn more. By continuing to use the site, you agree to this use of cookies and data.
  • En España
  • Lista de países
  • Para 7 días
  • Temperatura del agua
  • El tiempo en el mapa
  • Informadores
  • user-avatar
    Iniciar sesión

    Tiempo cada hora Chortkiv

    Hoy, 10 Abril, Viernes

    Tiempo Temperatura Precipitaciones Viento Presión Humedad
    00:00 +12°C° 0 mm 4 mps 736 mmHg 58%
    01:00 +11°C° 0 mm 4 mps 735 mmHg 59%
    02:00 +10°C° 0 mm 4 mps 735 mmHg 60%
    03:00 +10°C° 0.1 mm 4 mps 735 mmHg 63%
    04:00 +8°C° 0.1 mm 4 mps 736 mmHg 67%
    05:00 +8°C° 0.1 mm 5 mps 736 mmHg 71%
    06:00 +8°C° 0 mm 5 mps 736 mmHg 71%
    07:00 +9°C° 0 mm 5 mps 736 mmHg 72%
    08:00 +9°C° 0 mm 6 mps 737 mmHg 71%
    09:00 +10°C° 0 mm 7 mps 737 mmHg 64%
    10:00 +10°C° 0 mm 7 mps 738 mmHg 56%
    11:00 +11°C° 0 mm 8 mps 738 mmHg 49%
    12:00 +11°C° 0 mm 7 mps 738 mmHg 47%
    13:00 +11°C° 0 mm 7 mps 738 mmHg 45%
    14:00 +11°C° 0 mm 7 mps 738 mmHg 43%
    15:00 +11°C° 0 mm 7 mps 738 mmHg 41%
    16:00 +10°C° 0 mm 6 mps 738 mmHg 40%
    17:00 +10°C° 0 mm 6 mps 738 mmHg 39%
    18:00 +8°C° 0 mm 5 mps 739 mmHg 42%
    19:00 +7°C° 0 mm 4 mps 739 mmHg 45%
    20:00 +7°C° 0 mm 3 mps 739 mmHg 48%
    21:00 +5°C° 0 mm 3 mps 740 mmHg 50%
    22:00 +6°C° 0 mm 2 mps 740 mmHg 51%
    23:00 +5°C° 0 mm 2 mps 740 mmHg 53%

    Mañana, 11 Abril, Sábado

    Tiempo Temperatura Precipitaciones Viento Presión Humedad
    00:00 +6°C° 0 mm 1 mps 740 mmHg 54%
    01:00 +6°C° 0 mm 1 mps 740 mmHg 55%
    02:00 +6°C° 0 mm 1 mps 740 mmHg 56%
    03:00 +5°C° 0 mm 1 mps 740 mmHg 57%
    04:00 +5°C° 0 mm 1 mps 740 mmHg 59%
    05:00 +5°C° 0 mm 1 mps 740 mmHg 61%
    06:00 +5°C° 0 mm 2 mps 740 mmHg 57%
    07:00 +6°C° 0 mm 2 mps 740 mmHg 53%
    08:00 +7°C° 0 mm 2 mps 740 mmHg 49%
    09:00 +8°C° 0 mm 3 mps 740 mmHg 46%
    10:00 +10°C° 0 mm 3 mps 740 mmHg 44%
    11:00 +11°C° 0 mm 4 mps 741 mmHg 41%
    12:00 +12°C° 0 mm 4 mps 741 mmHg 41%
    13:00 +12°C° 0 mm 4 mps 741 mmHg 41%
    14:00 +12°C° 0 mm 4 mps 741 mmHg 41%
    15:00 +12°C° 0 mm 4 mps 741 mmHg 41%
    16:00 +12°C° 0 mm 4 mps 741 mmHg 41%
    17:00 +12°C° 0 mm 5 mps 740 mmHg 41%
    18:00 +10°C° 0 mm 4 mps 741 mmHg 44%
    19:00 +9°C° 0 mm 3 mps 741 mmHg 47%
    20:00 +8°C° 0 mm 3 mps 742 mmHg 50%
    21:00 +7°C° 0 mm 2 mps 742 mmHg 52%
    22:00 +6°C° 0 mm 2 mps 742 mmHg 53%
    23:00 +5°C° 0 mm 2 mps 743 mmHg 55%

    Pasado mañana, 12 Abril, Domingo

    Tiempo Temperatura Precipitaciones Viento Presión Humedad
    00:00 +5°C° 0 mm 2 mps 743 mmHg 55%
    01:00 +4°C° 0 mm 2 mps 743 mmHg 55%
    02:00 +4°C° 0 mm 2 mps 743 mmHg 56%
    03:00 +3°C° 0 mm 2 mps 742 mmHg 56%
    04:00 +3°C° 0 mm 2 mps 742 mmHg 57%
    05:00 +3°C° 0 mm 2 mps 742 mmHg 58%
    06:00 +3°C° 0 mm 3 mps 742 mmHg 56%
    07:00 +4°C° 0 mm 4 mps 742 mmHg 53%
    08:00 +5°C° 0 mm 4 mps 741 mmHg 50%
    09:00 +6°C° 0 mm 5 mps 741 mmHg 48%
    10:00 +8°C° 0 mm 5 mps 741 mmHg 46%
    11:00 +9°C° 0 mm 5 mps 740 mmHg 44%
    12:00 +12°C° 0 mm 4 mps 740 mmHg 43%
    13:00 +13°C° 0 mm 4 mps 739 mmHg 42%
    14:00 +14°C° 0 mm 3 mps 739 mmHg 41%
    15:00 +14°C° 0 mm 3 mps 738 mmHg 41%
    16:00 +15°C° 0 mm 2 mps 738 mmHg 41%
    17:00 +16°C° 0 mm 2 mps 737 mmHg 41%
    18:00 +15°C° 0 mm 2 mps 737 mmHg 45%
    19:00 +13°C° 0 mm 2 mps 737 mmHg 50%
    20:00 +12°C° 0 mm 2 mps 737 mmHg 54%
    21:00 +12°C° 0 mm 2 mps 737 mmHg 57%
    22:00 +10°C° 0 mm 2 mps 736 mmHg 59%
    23:00 +10°C° 0 mm 2 mps 736 mmHg 61%

    13 Abril, Lunes

    Tiempo Temperatura Precipitaciones Viento Presión Humedad
    00:00 +9°C° 0 mm 2 mps 736 mmHg 64%
    01:00 +9°C° 0 mm 2 mps 736 mmHg 66%
    02:00 +9°C° 0 mm 1 mps 735 mmHg 69%
    03:00 +9°C° 0 mm 1 mps 735 mmHg 71%
    04:00 +8°C° 0 mm 1 mps 735 mmHg 72%
    05:00 +8°C° 0 mm 1 mps 735 mmHg 73%
    06:00 +8°C° 0 mm 2 mps 734 mmHg 69%
    07:00 +10°C° 0 mm 2 mps 734 mmHg 64%
    08:00 +12°C° 0 mm 2 mps 734 mmHg 59%
    09:00 +13°C° 0 mm 3 mps 733 mmHg 54%
    10:00 +14°C° 0 mm 3 mps 733 mmHg 48%
    11:00 +17°C° 0 mm 4 mps 733 mmHg 42%
    12:00 +18°C° 0 mm 4 mps 732 mmHg 40%
    13:00 +18°C° 0 mm 4 mps 732 mmHg 38%
    14:00 +19°C° 0 mm 4 mps 731 mmHg 35%
    15:00 +19°C° 0 mm 5 mps 730 mmHg 40%
    16:00 +17°C° 0 mm 5 mps 730 mmHg 44%
    17:00 +17°C° 0 mm 6 mps 729 mmHg 48%
    18:00 +15°C° 0 mm 5 mps 728 mmHg 51%
    19:00 +14°C° 0 mm 5 mps 728 mmHg 53%
    20:00 +13°C° 0 mm 4 mps 727 mmHg 56%
    21:00 +13°C° 0 mm 4 mps 727 mmHg 59%
    22:00 +12°C° 0 mm 4 mps 727 mmHg 61%
    23:00 +12°C° 0 mm 4 mps 726 mmHg 64%

    14 Abril, Martes

    Tiempo Temperatura Precipitaciones Viento Presión Humedad
    00:00 +10°C° 0.2 mm 5 mps 726 mmHg 70%
    01:00 +9°C° 0.2 mm 6 mps 726 mmHg 77%
    02:00 +9°C° 0.2 mm 7 mps 726 mmHg 83%
    03:00 +6°C° 0.3 mm 7 mps 727 mmHg 80%
    04:00 +4°C° 0.3 mm 8 mps 728 mmHg 76%
    05:00 +1°C° 0.3 mm 8 mps 729 mmHg 73%
    06:00 0°C° 0 mm 8 mps 730 mmHg 67%
    07:00 0°C° 0 mm 8 mps 730 mmHg 60%
    08:00 -1°C° 0 mm 7 mps 731 mmHg 54%
    09:00 0°C° 0 mm 7 mps 731 mmHg 49%
    10:00 +2°C° 0 mm 7 mps 732 mmHg 45%
    11:00 +3°C° 0 mm 7 mps 732 mmHg 41%
    12:00 +4°C° 0 mm 7 mps 732 mmHg 39%
    13:00 +4°C° 0 mm 6 mps 732 mmHg 36%
    14:00 +5°C° 0 mm 6 mps 732 mmHg 34%
    15:00 +5°C° 0 mm 6 mps 732 mmHg 35%
    16:00 +5°C° 0 mm 7 mps 732 mmHg 36%
    17:00 +5°C° 0 mm 7 mps 732 mmHg 36%
    18:00 +4°C° 0 mm 6 mps 732 mmHg 41%
    19:00 +3°C° 0 mm 5 mps 733 mmHg 47%
    20:00 +3°C° 0 mm 4 mps 733 mmHg 52%
    21:00 +3°C° 0 mm 4 mps 733 mmHg 54%
    22:00 +1°C° 0 mm 4 mps 733 mmHg 56%
    23:00 +1°C° 0 mm 4 mps 734 mmHg 58%

    15 Abril, Miércoles

    Tiempo Temperatura Precipitaciones Viento Presión Humedad
    00:00 +1°C° 0 mm 5 mps 733 mmHg 59%
    01:00 0°C° 0 mm 5 mps 733 mmHg 60%
    02:00 0°C° 0 mm 5 mps 733 mmHg 62%
    03:00 -1°C° 0 mm 6 mps 733 mmHg 66%
    04:00 -2°C° 0 mm 7 mps 734 mmHg 70%
    05:00 -2°C° 0 mm 7 mps 734 mmHg 74%
    06:00 -2°C° 0 mm 7 mps 734 mmHg 67%
    07:00 -1°C° 0 mm 8 mps 734 mmHg 60%
    08:00 -1°C° 0 mm 8 mps 734 mmHg 52%
    09:00 +1°C° 0 mm 8 mps 734 mmHg 49%
    10:00 +2°C° 0 mm 8 mps 734 mmHg 46%
    11:00 +3°C° 0 mm 9 mps 734 mmHg 43%
    12:00 +3°C° 0 mm 9 mps 734 mmHg 42%
    13:00 +5°C° 0 mm 9 mps 734 mmHg 42%
    14:00 +6°C° 0 mm 9 mps 733 mmHg 41%
    15:00 +5°C° 0 mm 8 mps 733 mmHg 42%
    16:00 +5°C° 0 mm 8 mps 733 mmHg 43%
    17:00 +5°C° 0 mm 8 mps 733 mmHg 44%
    18:00 +5°C° 0 mm 6 mps 733 mmHg 47%
    19:00 +5°C° 0 mm 5 mps 733 mmHg 50%
    20:00 +4°C° 0 mm 4 mps 733 mmHg 53%
    21:00 +4°C° 0 mm 4 mps 733 mmHg 54%
    22:00 +3°C° 0 mm 5 mps 732 mmHg 55%
    23:00 +3°C° 0 mm 5 mps 732 mmHg 56%
    Mostrar más